[[{"header":{"parameterUnit":"m.s-1","parameterCategory":1,"la1":30.2992,"la2":30.254,"lo1":-89.0895,"lo2":-89.0443,"dy":0.0025,"dx":0.0025,"nx":19,"ny":19,"refTime":"2026-03-18T03:00:00:Z","depth":0,"parameterNumber":2,"parameterNumberName":"U-component_of_WINDS"},"data":[0,0,0,-2.2005,-2.2008,-2.2115,-2.2115,-2.2259,-2.226,0,0,0,0,0,0,0,0,0,0,0,-2.1979,-2.198,-2.2005,-2.2008,-2.2115,-2.2115,-2.2259,-2.226,0,0,0,0,0,0,0,0,0,0,0,-2.1978,-2.198,-2.1981,-2.2008,-2.2115,-2.2115,-2.2258,-2.2175,0,0,0,0,0,0,0,0,0,0,-2.207,-2.2051,-2.1979,-2.1981,-2.2009,-2.2115,-2.2115,-2.2171,-2.218,-2.2214,0,-2.2246,0,-2.2256,-2.2271,-2.2271,0,0,0,-2.2004,-2.2043,-2.2067,-2.1982,-2.201,-2.2115,-2.2065,-2.2176,-2.2187,-2.2226,-2.2248,-2.2253,-2.2258,-2.2272,-2.2272,-2.2481,-2.2482,0,0,-2.1998,-2.2001,-2.206,-2.2074,-2.206,-2.2062,-2.2069,-2.2182,-2.2206,-2.2249,-2.2256,-2.226,-2.2273,-2.2274,-2.248,-2.2482,0,0,0,-2.1984,-2.1997,-2.2018,-2.2069,-2.2088,-2.2065,-2.2073,-2.2201,-2.2208,-2.2258,-2.2262,-2.2273,-2.2275,-2.2479,-2.2481,-2.2541,0,0,0,-2.198,-2.1989,-2.2016,-2.2019,-2.2086,-2.2146,-2.2089,-2.22,-2.2212,-2.2261,-2.2274,-2.2277,-2.2478,-2.248,-2.2537,-2.2569,0,0,0,-2.197,-2.1987,-2.2005,-2.2019,-2.2065,-2.2144,-2.2157,-2.2202,-2.2215,-2.2271,-2.2277,-2.2477,-2.248,-2.2533,-2.2562,-2.2624,0,0,0,-2.196,-2.2058,-2.2006,-2.2116,-2.2064,-2.2181,-2.2156,-2.2243,-2.2299,-2.2274,-2.2478,-2.2481,-2.2532,-2.2559,-2.262,-2.2675,-2.2699,0,0,-2.2085,-2.2073,-2.2138,-2.2094,-2.2221,-2.2164,-2.23,-2.2348,-2.235,-2.2437,-2.2442,-2.2538,-2.2562,-2.2623,-2.2834,-2.2853,0,0,0,-2.2178,-2.2224,-2.2257,-2.231,-2.2349,-2.2384,-2.2411,-2.2428,-2.2502,-2.2396,-2.2577,-2.2592,-2.2627,-2.2653,-2.267,-2.2699,-2.2493,-2.2493,-2.2493,-2.2359,-2.2356,-2.2462,-2.2472,-2.2524,-2.2549,-2.259,-2.2618,-2.2601,-2.2644,-2.2669,-2.2797,-2.2829,-2.2841,-2.2872,-2.2699,-2.27,-2.27,-2.27,-2.254,-2.2604,-2.2578,-2.2672,-2.2668,-2.2746,-2.2774,-2.2759,-2.283,-2.2778,-2.2809,-2.2752,-2.2862,-2.2888,-2.2704,-2.2704,-2.2703,-2.2703,-2.2702,-2.2657,-2.2687,-2.2707,-2.2782,-2.284,-2.2846,-2.2915,-2.291,-2.2905,-2.2936,-2.2961,-2.296,-2.2957,-2.2948,-2.2949,-2.2949,-2.295,-2.295,-2.295,-2.2771,-2.2791,-2.285,-2.2898,-2.293,-2.2972,-2.2998,-2.3029,-2.3062,-2.3052,-2.3053,-2.303,-2.2873,-2.2833,-2.2957,-2.2956,-2.2955,-2.2954,-2.2954,-2.2954,-2.2911,-2.3003,-2.3035,-2.309,-2.3147,-2.3139,-2.3203,-2.3227,-2.3261,-2.3232,-2.3118,-2.3105,-2.3092,-2.3058,-2.3233,-2.3233,-2.3233,-2.3233,-2.3052,-2.3045,-2.3136,-2.3188,-2.3238,-2.3239,-2.3341,-2.3361,-2.3376,-2.339,-2.3364,-2.332,-2.3307,-2.3302,-2.3284,-2.3253,-2.3474,-2.3474,-2.3474,-2.3164,-2.3161,-2.3249,-2.3263,-2.3305,-2.3341,-2.3436,-2.3495,-2.3503,-2.3484,-2.3401,-2.3391,-2.332,-2.3297,-2.3276,-2.3249,-2.3192,0,0]},{"header":{"parameterUnit":"m.s-1","parameterCategory":1,"la1":30.2992,"la2":30.254,"lo1":-89.0895,"lo2":-89.0443,"dy":0.0025,"dx":0.0025,"nx":19,"ny":19,"refTime":"2026-03-18T03:00:00:Z","depth":0,"parameterNumber":3,"parameterNumberName":"V-component_of_WINDS"},"data":[0,0,0,-1.7268,-1.7269,-1.7324,-1.7324,-1.7398,-1.7399,0,0,0,0,0,0,0,0,0,0,0,-1.7255,-1.7256,-1.7268,-1.727,-1.7324,-1.7324,-1.7398,-1.7399,0,0,0,0,0,0,0,0,0,0,0,-1.7255,-1.7256,-1.7257,-1.727,-1.7324,-1.7324,-1.7398,-1.7355,0,0,0,0,0,0,0,0,0,0,-1.7301,-1.7293,-1.7256,-1.7257,-1.727,-1.7324,-1.7324,-1.7353,-1.7358,-1.7375,0,-1.7392,0,-1.7397,-1.7404,-1.7404,0,0,0,-1.7267,-1.7289,-1.7301,-1.7257,-1.7271,-1.7324,-1.7299,-1.7355,-1.7361,-1.7382,-1.7393,-1.7396,-1.7398,-1.7404,-1.7405,-1.7515,-1.7515,0,0,-1.7264,-1.7267,-1.7297,-1.7304,-1.7297,-1.7297,-1.73,-1.7359,-1.7371,-1.7394,-1.7398,-1.7399,-1.7405,-1.7405,-1.7514,-1.7515,0,0,0,-1.7257,-1.7265,-1.7275,-1.7301,-1.7311,-1.7299,-1.7303,-1.7369,-1.7372,-1.7398,-1.74,-1.7405,-1.7406,-1.7513,-1.7514,-1.7548,0,0,0,-1.7255,-1.7261,-1.7274,-1.7276,-1.731,-1.7341,-1.7312,-1.7368,-1.7374,-1.74,-1.7405,-1.7407,-1.7513,-1.7514,-1.7545,-1.7563,0,0,0,-1.7251,-1.726,-1.7269,-1.7276,-1.73,-1.734,-1.7346,-1.7369,-1.7376,-1.7404,-1.7407,-1.7512,-1.7514,-1.7543,-1.756,-1.7592,0,0,0,-1.7247,-1.7299,-1.727,-1.7329,-1.7299,-1.736,-1.7346,-1.7391,-1.7419,-1.7406,-1.7513,-1.7514,-1.7543,-1.7558,-1.759,-1.762,-1.7633,0,0,-1.7315,-1.7308,-1.7342,-1.7317,-1.7384,-1.7352,-1.7423,-1.7447,-1.7447,-1.7492,-1.7494,-1.7546,-1.756,-1.7592,-1.7705,-1.7715,0,0,0,-1.7364,-1.7389,-1.7406,-1.7433,-1.7452,-1.7469,-1.7481,-1.749,-1.7528,-1.7471,-1.7567,-1.7575,-1.7594,-1.7608,-1.7617,-1.7632,-1.7521,-1.7521,-1.7521,-1.7465,-1.7461,-1.7517,-1.752,-1.7546,-1.7557,-1.7578,-1.7591,-1.7581,-1.7604,-1.7617,-1.7686,-1.7703,-1.7709,-1.7726,-1.7633,-1.7633,-1.7633,-1.7633,-1.7563,-1.7597,-1.758,-1.7629,-1.7624,-1.7665,-1.7677,-1.7668,-1.7704,-1.7676,-1.7692,-1.7661,-1.7721,-1.7735,-1.7636,-1.7635,-1.7635,-1.7635,-1.7634,-1.7628,-1.7643,-1.7652,-1.769,-1.7719,-1.772,-1.7755,-1.775,-1.7746,-1.7762,-1.7775,-1.7774,-1.7772,-1.7768,-1.7768,-1.7769,-1.7769,-1.7769,-1.7769,-1.7692,-1.7701,-1.7731,-1.7754,-1.777,-1.779,-1.78,-1.7816,-1.7831,-1.7825,-1.7825,-1.7812,-1.7727,-1.7706,-1.7773,-1.7772,-1.7772,-1.7771,-1.7771,-1.7793,-1.7769,-1.7816,-1.7832,-1.7857,-1.7886,-1.7878,-1.7909,-1.7921,-1.7938,-1.7921,-1.786,-1.7852,-1.7845,-1.7827,-1.7922,-1.7922,-1.7922,-1.7922,-1.7847,-1.7843,-1.7889,-1.7914,-1.7938,-1.7935,-1.7988,-1.7996,-1.8,-1.8007,-1.7992,-1.7968,-1.7961,-1.7958,-1.7949,-1.7932,-1.8051,-1.8051,-1.8051,-1.7909,-1.7906,-1.7952,-1.7955,-1.7974,-1.7991,-1.8039,-1.8068,-1.8068,-1.8056,-1.8012,-1.8006,-1.7968,-1.7955,-1.7943,-1.7929,-1.7898,0,0]}]]